�N����,����,�~����,�C��,���x,�C��,����,���ϕ���,�ő�u�ԕ���,�ő厞����,���˗�,�I�_���x,�n�����x,�ő啗���N��,DTYPE
"19/06/17","00:10",0.0,16.5,87.8,1004.3,280.1,0.6,0.9,298.7,0.00,14.5,20.0,"00:01:04",1
"19/06/17","00:20",0.0,16.4,88.4,1004.3,314.7,1.1,2.5,345.7,0.00,14.5,19.7,"00:16:48",1
"19/06/17","00:30",0.0,16.6,88.8,1004.8,329.0,1.3,2.5,335.6,0.00,14.8,20.0,"00:20:48",1
"19/06/17","00:40",0.0,16.5,89.0,1004.5,313.3,1.2,2.1,342.3,0.00,14.7,19.8,"00:39:20",1
"19/06/17","00:50",0.0,16.3,89.4,1004.5,325.0,1.1,2.2,340.5,0.00,14.6,19.8,"00:48:08",1
"19/06/17","01:00",0.0,16.2,89.4,1004.8,333.3,1.3,2.8,335.2,0.00,14.5,19.9,"00:59:36",1
"19/06/17","01:10",0.0,16.3,89.2,1004.5,333.1,1.3,3.7,340.6,0.00,14.6,19.7,"01:00:56",1
"19/06/17","01:20",0.0,16.3,89.3,1005.0,343.0,1.2,2.4,330.5,0.00,14.6,19.7,"01:15:36",1
"19/06/17","01:30",0.0,16.4,88.9,1004.3,331.0,1.6,2.7,333.9,0.00,14.6,19.8,"01:25:44",1
"19/06/17","01:40",0.0,16.4,88.7,1004.5,336.4,1.5,2.5,313.2,0.00,14.6,19.7,"01:33:20",1
"19/06/17","01:50",0.0,16.2,88.9,1004.5,332.7,1.2,2.4,303.3,0.00,14.4,19.5,"01:48:00",1
"19/06/17","02:00",0.0,16.1,89.6,1004.5,309.3,0.7,1.1,332.0,0.00,14.4,19.7,"01:50:16",1
"19/06/17","02:10",0.0,16.1,89.6,1005.0,287.2,0.7,1.1,307.4,0.00,14.4,19.5,"02:02:40",1
"19/06/17","02:20",0.0,16.2,89.7,1004.8,299.2,0.7,1.3,344.3,0.00,14.5,19.5,"02:19:04",1
"19/06/17","02:30",0.0,16.4,89.9,1004.5,341.1,1.1,1.9,334.1,0.00,14.8,19.5,"02:23:12",1
"19/06/17","02:40",0.0,16.3,89.8,1004.5,319.0,1.1,1.9,332.3,0.00,14.7,19.5,"02:31:04",1
"19/06/17","02:50",0.0,16.3,90.0,1005.0,296.1,0.7,1.2,328.2,0.00,14.7,19.5,"02:46:16",1
"19/06/17","03:00",0.0,16.3,90.0,1004.8,300.7,0.8,1.6,330.6,0.00,14.7,19.5,"02:59:28",1
"19/06/17","03:10",0.0,16.3,90.0,1005.0,324.7,1.1,2.4,335.2,0.00,14.7,19.4,"03:09:52",1
"19/06/17","03:20",0.0,16.3,89.9,1005.0,326.4,1.3,2.0,335.2,0.00,14.7,19.5,"03:16:56",1
"19/06/17","03:30",0.0,16.4,90.0,1005.2,327.7,1.3,2.2,331.4,0.00,14.8,19.4,"03:22:16",1
"19/06/17","03:40",0.0,16.5,89.7,1005.2,326.4,1.7,3.4,334.4,0.00,14.8,19.4,"03:32:00",1
"19/06/17","03:50",0.0,16.5,89.5,1005.5,325.6,2.0,3.5,315.8,0.00,14.8,19.6,"03:49:04",1
"19/06/17","04:00",0.0,16.5,89.6,1005.7,331.3,1.8,3.4,332.9,0.00,14.8,19.5,"03:55:52",1
"19/06/17","04:10",0.0,16.5,89.5,1005.7,327.8,1.5,2.7,327.7,0.00,14.8,19.4,"04:03:04",1
"19/06/17","04:20",0.0,16.5,89.4,1006.0,330.4,1.5,2.7,342.4,0.00,14.8,19.6,"04:13:28",1
"19/06/17","04:30",0.0,16.5,89.1,1006.4,334.3,1.8,3.9,349.3,0.00,14.7,19.4,"04:29:12",1
"19/06/17","04:40",0.0,16.7,88.5,1006.4,328.7,2.3,4.4,332.8,0.00,14.8,19.6,"04:32:56",1
"19/06/17","04:50",0.0,16.7,87.6,1006.0,326.4,2.2,4.0,333.7,0.00,14.7,19.4,"04:43:28",1
"19/06/17","05:00",0.0,16.9,86.6,1006.7,334.8,1.7,2.9,327.5,0.00,14.7,19.6,"04:50:02",1
"19/06/17","05:10",0.0,16.8,86.2,1006.7,330.2,1.5,3.1,312.7,0.00,14.5,19.4,"05:00:48",1
"19/06/17","05:20",0.0,16.6,85.9,1006.7,325.4,1.6,3.4,330.6,0.00,14.3,19.3,"05:16:32",1
"19/06/17","05:30",0.0,16.5,86.1,1006.4,311.8,0.8,1.6,314.0,0.00,14.2,19.2,"05:24:08",1
"19/06/17","05:40",0.0,16.2,86.4,1006.2,276.5,0.3,1.0,258.9,0.00,14.0,19.2,"05:39:36",1
"19/06/17","05:50",0.0,15.8,87.2,1006.2,271.1,0.8,1.1,271.8,0.00,13.7,19.2,"05:44:16",1
"19/06/17","06:00",0.0,15.7,88.5,1006.7,313.2,1.0,1.7,323.7,0.00,13.8,19.2,"05:58:32",1
"19/06/17","06:10",0.0,15.9,89.2,1006.7,323.8,1.1,1.7,333.6,0.01,14.2,19.2,"06:09:44",1
"19/06/17","06:20",0.0,16.4,88.7,1006.9,350.4,1.0,1.7,342.0,0.02,14.6,19.2,"06:17:46",1
"19/06/17","06:30",0.0,17.0,87.7,1007.1,338.5,1.0,2.0,340.3,0.03,15.0,19.0,"06:22:40",1
"19/06/17","06:40",0.0,17.6,86.7,1006.9,333.7,1.3,2.0,303.9,0.05,15.4,19.1,"06:37:12",1
"19/06/17","06:50",0.0,18.1,83.9,1007.4,340.9,1.7,3.6,341.2,0.07,15.4,19.0,"06:48:48",1
"19/06/17","07:00",0.0,18.3,80.0,1007.4,339.3,2.1,4.2,354.4,0.11,14.8,18.8,"06:53:28",1
"19/06/17","07:10",0.0,18.7,77.8,1007.6,344.1,2.3,4.1,325.4,0.14,14.8,19.1,"07:00:32",1
"19/06/17","07:20",0.0,18.7,76.7,1007.4,352.7,2.1,3.5,343.7,0.14,14.6,19.2,"07:10:24",1
"19/06/17","07:30",0.0,18.8,76.1,1006.9,350.2,2.5,4.1,341.7,0.16,14.5,19.2,"07:23:20",1
"19/06/17","07:40",0.0,18.5,75.9,1007.1,356.5,2.6,5.4,349.6,0.16,14.2,19.2,"07:38:48",1
"19/06/17","07:50",0.0,18.7,76.5,1006.9,342.7,3.0,5.7,341.0,0.14,14.5,19.3,"07:42:56",1
"19/06/17","08:00",0.0,18.8,75.6,1007.1,350.2,2.2,5.1,348.9,0.16,14.4,19.4,"07:57:44",1
"19/06/17","08:10",0.0,19.6,74.5,1006.9,343.6,2.0,4.2,343.2,0.24,15.0,19.5,"08:00:08",1
"19/06/17","08:20",0.0,19.6,72.9,1007.1,347.2,2.3,4.2,316.8,0.23,14.7,19.8,"08:18:56",1
"19/06/17","08:30",0.0,20.1,70.6,1007.1,343.4,2.5,5.0,339.2,0.27,14.6,19.7,"08:26:40",1
"19/06/17","08:40",0.0,20.2,70.6,1007.1,343.7,2.2,5.4,344.7,0.28,14.7,19.7,"08:35:44",1
"19/06/17","08:50",0.0,20.8,69.7,1006.7,348.2,2.2,5.6,353.9,0.32,15.1,19.8,"08:46:08",1
"19/06/17","09:00",0.0,20.3,68.1,1006.9,355.1,2.7,5.9,351.5,0.31,14.3,19.9,"08:50:08",1
"19/06/17","09:10",0.0,20.9,67.8,1007.1,7.7,2.2,4.5,352.7,0.37,14.8,20.2,"09:07:12",1
"19/06/17","09:20",0.0,21.3,66.4,1006.9,359.5,2.6,4.7,348.9,0.38,14.8,20.2,"09:14:40",1
"19/06/17","09:30",0.0,21.7,65.7,1006.7,345.8,2.7,5.4,346.4,0.44,15.0,20.3,"09:26:48",1
"19/06/17","09:40",0.0,22.3,66.6,1006.4,341.6,2.2,5.1,308.9,0.44,15.8,20.5,"09:32:48",1
"19/06/17","09:50",0.0,21.7,63.4,1006.7,11.3,1.3,2.5,0.7,0.42,14.5,20.6,"09:43:36",1
"19/06/17","10:00",0.0,22.5,62.6,1006.7,42.1,1.0,3.2,28.7,0.54,15.1,20.8,"09:58:48",1
"19/06/17","10:10",0.0,22.5,64.9,1006.0,16.4,2.0,4.8,326.9,0.51,15.6,20.9,"10:07:28",1
"19/06/17","10:20",0.0,22.8,63.0,1006.0,338.5,2.1,4.5,332.2,0.56,15.4,21.2,"10:16:48",1
"19/06/17","10:30",0.0,22.9,62.1,1006.2,338.4,1.2,4.1,348.6,0.53,15.3,21.4,"10:28:56",1
"19/06/17","10:40",0.0,23.3,60.0,1006.0,357.6,1.7,4.0,346.1,0.60,15.1,21.7,"10:31:52",1
"19/06/17","10:50",0.0,23.2,60.0,1006.2,347.8,1.8,4.7,7.4,0.60,15.1,21.9,"10:48:08",1
"19/06/17","11:00",0.0,23.8,57.6,1006.0,6.7,1.8,4.8,349.4,0.60,15.0,22.2,"10:51:36",1
"19/06/17","11:10",0.0,23.4,57.3,1005.5,34.4,1.6,3.7,350.0,0.58,14.5,22.3,"11:00:40",1
"19/06/17","11:20",0.0,22.3,61.1,1006.0,350.5,1.7,3.3,331.5,0.29,14.5,22.6,"11:16:56",1
"19/06/17","11:30",0.0,23.2,61.9,1006.2,319.4,1.1,2.9,323.1,0.27,15.5,22.7,"11:23:20",1
"19/06/17","11:40",0.0,23.0,60.0,1006.2,135.3,1.2,2.5,149.4,0.27,14.9,22.9,"11:39:12",1
"19/06/17","11:50",0.0,25.0,55.3,1006.0,348.0,1.2,3.5,348.2,0.62,15.5,23.1,"11:45:28",1
"19/06/17","12:00",0.0,23.2,60.5,1005.5,326.7,1.5,5.0,343.8,0.28,15.2,23.0,"11:57:12",1
"19/06/17","12:10",0.0,23.4,60.0,1005.7,285.6,1.3,3.3,328.1,0.36,15.2,23.3,"12:01:36",1
"19/06/17","12:20",0.0,24.6,59.8,1005.5,232.5,1.6,3.4,240.7,0.57,16.3,23.1,"12:15:44",1
"19/06/17","12:30",0.0,23.4,57.9,1005.2,275.3,1.2,2.9,333.8,0.38,14.7,23.8,"12:28:48",1
"19/06/17","12:40",0.0,23.1,60.3,1005.5,271.2,2.2,4.9,230.8,0.22,15.0,23.6,"12:34:08",1
"19/06/17","12:50",0.0,23.6,59.3,1005.7,304.3,1.3,3.2,342.3,0.24,15.2,23.8,"12:43:44",1
"19/06/17","13:00",0.0,24.3,58.2,1005.5,238.8,1.2,3.1,261.3,0.47,15.6,23.9,"12:57:52",1
"19/06/17","13:10",0.0,24.0,57.7,1005.5,272.5,1.6,4.0,341.1,0.22,15.2,23.8,"13:07:52",1
"19/06/17","13:20",0.0,24.2,59.3,1005.7,322.8,1.1,3.3,313.2,0.29,15.8,23.8,"13:10:56",1
"19/06/17","13:30",0.0,24.0,57.2,1005.2,317.5,1.1,3.4,338.6,0.22,15.1,23.9,"13:22:24",1
"19/06/17","13:40",0.0,25.0,57.3,1005.2,347.3,1.2,2.9,352.7,0.36,16.0,23.7,"13:30:32",1
"19/06/17","13:50",0.0,24.6,55.3,1005.0,289.2,1.3,4.5,323.2,0.38,15.1,23.7,"13:40:02",1
"19/06/17","14:00",0.0,24.3,57.3,1004.8,340.6,2.2,4.5,358.9,0.26,15.4,24.0,"13:55:44",1
"19/06/17","14:10",0.0,24.0,56.3,1005.2,316.5,1.6,3.6,313.4,0.23,14.8,23.7,"14:00:56",1
"19/06/17","14:20",0.0,24.8,54.1,1005.0,276.7,1.0,2.8,263.5,0.30,14.9,23.9,"14:17:36",1
"19/06/17","14:30",0.0,24.5,56.2,1004.8,335.3,2.0,4.3,325.1,0.28,15.2,23.9,"14:23:52",1
"19/06/17","14:40",0.0,24.8,56.9,1005.0,335.3,2.8,5.9,341.7,0.39,15.7,23.8,"14:34:56",1
"19/06/17","14:50",0.0,25.5,52.3,1005.0,340.6,1.8,4.5,354.6,0.53,15.1,24.2,"14:46:24",1
"19/06/17","15:00",0.0,24.8,53.1,1004.3,291.5,1.3,4.0,314.0,0.38,14.6,24.3,"14:52:40",1
"19/06/17","15:10",0.0,25.3,54.3,1004.5,303.6,1.2,2.8,343.3,0.24,15.5,24.3,"15:07:44",1
"19/06/17","15:20",0.0,24.8,54.6,1004.3,357.7,1.6,3.5,347.4,0.30,15.1,24.1,"15:13:12",1
"19/06/17","15:30",0.0,26.0,52.3,1004.1,11.7,1.6,3.9,327.4,0.48,15.5,24.4,"15:20:02",1
"19/06/17","15:40",0.0,24.9,50.7,1004.5,342.3,1.8,3.6,349.4,0.22,14.0,24.0,"15:34:08",1
"19/06/17","15:50",0.0,25.1,53.4,1004.5,302.8,0.8,1.9,315.0,0.29,15.0,24.4,"15:47:12",1
"19/06/17","16:00",0.0,25.9,49.4,1004.1,237.9,0.8,2.4,239.1,0.42,14.5,24.4,"15:57:20",1
"19/06/17","16:10",0.0,26.4,49.5,1004.5,334.0,1.8,4.2,4.1,0.44,15.0,24.4,"16:02:48",1
"19/06/17","16:20",0.0,24.7,53.1,1004.3,324.2,2.0,4.0,348.6,0.13,14.6,24.5,"16:12:40",1
"19/06/17","16:30",0.0,25.2,53.0,1004.3,330.3,1.6,2.9,317.6,0.12,15.0,24.3,"16:23:28",1
"19/06/17","16:40",0.0,24.7,54.2,1004.5,335.6,1.7,3.4,351.6,0.09,14.9,24.2,"16:33:04",1
"19/06/17","16:50",0.0,25.5,52.9,1004.3,345.8,2.3,5.5,336.5,0.27,15.2,24.2,"16:49:28",1
"19/06/17","17:00",0.0,25.4,53.9,1004.3,338.6,2.8,6.2,341.4,0.25,15.4,24.3,"16:53:12",1
"19/06/17","17:10",0.0,25.5,52.5,1004.1,328.0,2.5,4.8,337.5,0.20,15.1,24.3,"17:04:32",1
"19/06/17","17:20",0.0,25.6,52.1,1004.5,334.2,2.2,4.4,356.4,0.03,15.1,24.3,"17:19:44",1
"19/06/17","17:30",0.0,25.6,51.0,1004.3,354.8,1.7,5.1,340.2,0.02,14.8,24.2,"17:20:16",1
"19/06/17","17:40",0.0,25.5,52.2,1004.1,5.9,1.3,2.7,51.2,0.02,15.0,24.1,"17:34:40",1
"19/06/17","17:50",0.0,25.3,53.1,1004.5,349.2,1.7,5.1,342.8,0.01,15.1,24.2,"17:41:28",1
"19/06/17","18:00",0.0,25.3,53.4,1004.3,0.2,1.2,2.7,343.7,0.01,15.2,24.1,"17:55:44",1
"19/06/17","18:10",0.0,25.1,53.4,1004.5,349.9,1.6,3.2,6.4,0.01,15.0,24.0,"18:05:28",1
"19/06/17","18:20",0.0,25.2,54.7,1004.8,350.6,1.2,2.6,342.3,0.01,15.5,23.9,"18:17:28",1
"19/06/17","18:30",0.0,24.8,53.7,1004.5,348.0,1.5,2.9,344.2,0.00,14.8,23.8,"18:20:40",1
"19/06/17","18:40",0.0,24.5,55.8,1005.0,343.3,1.1,2.0,359.7,0.01,15.1,23.8,"18:35:28",1
"19/06/17","18:50",0.0,24.0,57.5,1005.0,335.2,1.6,3.4,325.6,0.02,15.1,23.3,"18:41:28",1
"19/06/17","19:00",0.0,23.2,59.9,1004.8,330.8,1.6,2.5,332.8,0.00,15.0,23.5,"18:54:00",1
"19/06/17","19:10",0.0,22.6,61.9,1005.2,322.2,1.6,2.8,346.3,0.00,15.0,23.2,"19:01:12",1
"19/06/17","19:20",0.0,21.9,63.9,1005.5,292.7,1.0,2.4,340.1,0.00,14.8,23.2,"19:11:04",1
"19/06/17","19:30",0.0,21.4,66.4,1005.5,317.6,1.6,3.7,320.3,0.00,14.9,23.1,"19:27:36",1
"19/06/17","19:40",0.0,21.0,67.9,1005.2,323.9,2.3,3.5,320.6,0.00,14.9,23.0,"19:30:24",1
"19/06/17","19:50",0.0,20.8,68.5,1005.7,321.4,2.2,4.0,317.2,0.00,14.8,22.8,"19:44:24",1
"19/06/17","20:00",0.0,20.6,69.7,1005.7,295.7,1.6,3.2,332.3,0.00,14.9,22.7,"19:52:00",1
"19/06/17","20:10",0.0,20.2,70.7,1006.4,294.8,1.3,2.6,329.6,0.00,14.8,22.7,"20:06:28",1
"19/06/17","20:20",0.0,19.9,71.9,1006.2,311.9,1.8,2.9,327.6,0.00,14.7,22.4,"20:11:04",1
"19/06/17","20:30",0.0,19.8,72.6,1006.4,318.1,2.1,4.2,295.3,0.00,14.8,22.4,"20:22:08",1
"19/06/17","20:40",0.0,19.6,73.5,1006.4,325.6,2.6,4.8,332.4,0.00,14.8,22.4,"20:34:48",1
"19/06/17","20:50",0.0,19.4,74.0,1006.7,327.1,2.3,3.4,332.8,0.00,14.7,22.3,"20:44:48",1
"19/06/17","21:00",0.0,19.1,74.6,1006.2,302.0,1.3,2.6,316.5,0.00,14.5,22.0,"20:51:20",1
"19/06/17","21:10",0.0,18.9,75.7,1006.7,254.1,0.8,1.6,301.5,0.00,14.6,22.0,"21:04:32",1
"19/06/17","21:20",0.0,18.6,76.3,1006.7,271.3,0.8,1.7,272.0,0.00,14.4,21.9,"21:14:16",1
"19/06/17","21:30",0.0,18.4,76.1,1006.7,305.2,1.2,2.0,336.7,0.00,14.2,21.6,"21:21:44",1
"19/06/17","21:40",0.0,18.1,77.6,1007.1,298.1,1.0,1.8,302.0,0.00,14.2,21.5,"21:31:36",1
"19/06/17","21:50",0.0,17.8,78.5,1007.1,292.6,1.1,1.8,333.3,0.00,14.1,21.4,"21:45:44",1
"19/06/17","22:00",0.0,17.4,80.1,1007.4,283.3,0.8,1.4,321.0,0.00,14.0,21.4,"21:56:24",1
"19/06/17","22:10",0.0,17.0,80.8,1007.6,298.6,1.0,1.8,313.8,0.00,13.7,21.3,"22:09:12",1
"19/06/17","22:20",0.0,17.0,82.8,1007.8,333.4,1.3,1.7,346.8,0.00,14.1,21.2,"22:13:28",1
"19/06/17","22:30",0.0,16.6,84.3,1007.8,311.6,1.1,1.4,327.3,0.00,14.0,21.2,"22:22:40",1
"19/06/17","22:40",0.0,16.3,85.7,1007.6,287.0,0.3,1.0,277.0,0.00,13.9,20.8,"22:30:48",1
"19/06/17","22:50",0.0,16.3,87.0,1007.8,305.8,1.0,1.4,312.1,0.00,14.2,20.9,"22:42:00",1
"19/06/17","23:00",0.0,16.5,86.5,1008.1,325.4,1.5,2.6,322.9,0.00,14.3,20.8,"22:55:36",1
"19/06/17","23:10",0.0,16.7,85.7,1007.8,320.6,1.7,2.4,329.1,0.00,14.3,20.8,"23:08:08",1
"19/06/17","23:20",0.0,16.6,85.2,1007.8,318.4,1.8,2.6,320.1,0.00,14.1,20.7,"23:15:12",1
"19/06/17","23:30",0.0,16.6,84.6,1007.8,317.6,1.7,3.3,326.7,0.00,14.0,20.5,"23:21:28",1
"19/06/17","23:40",0.0,16.5,84.2,1007.8,301.0,1.3,1.9,330.0,0.00,13.9,20.5,"23:35:52",1
"19/06/17","23:50",0.0,16.7,84.0,1007.8,320.7,2.0,3.3,337.6,0.00,14.0,20.4,"23:44:40",1
"19/06/17","24:00",0.0,17.0,83.3,1008.3,317.5,1.7,2.7,327.7,0.00,14.2,20.5,"23:57:36",1
